Home   Weather   Abbotsford   Past weeks
Flag for Canada

Past Weather in Abbotsford, British Columbia, Canada — Yesterday and Last 2 Weeks

Now
41 °F

Fog.


Feels Like: 41 °F
Forecast: 57 / 42 °F
Wind: 2 mph from North

Location: Abbotsford

Current Time: Oct 14, 2019 at 8:44:13 am

Latest Report: Oct 14, 2019 at 8:00 am


Visibility: 30 mi

Pressure: 30.11 "Hg

Humidity: 100%

Dew Point: 41 °F

Location of AbbotsfordLocation

Past Weather in Abbotsford — Graph

°F

Abbotsford Temperature Yesterday

Maximum temperature yesterday: 55 °F (at 4:00 pm)
Minimum temperature yesterday: 45 °F (at 10:00 pm)
Average temperature yesterday: 49 °F

High & Low Weather Summary for the Past Weeks

 TemperatureHumidityPressure
High61 °F (Oct 2, 3:00 pm)100% (Oct 4, 9:00 am)30.50 "Hg (Oct 4, 9:00 am)
Low32 °F (Oct 10, 2:00 am)27% (Oct 9, 12:00 pm)29.75 "Hg (Oct 7, 7:00 pm)
Average49 °F76%30.12 "Hg
* Reported Sep 29 7:00 am — Oct 14 7:00 am, Abbotsford. Weather by CustomWeather, © 2019

Note: Actual official high and low records may vary slightly from our data, if they occured in-between our weather recording intervals... More about our weather records

Advertising

Abbotsford Weather History for the Previous 24 Hours

Scroll right to see more
 ConditionsComfort  
Time TempWeatherWind HumidityBarometerVisibility
7:00 am
Mon, Oct 14
41 °FPassing clouds.No wind93%30.11 "Hg20 mi
6:00 am41 °FPassing clouds.No wind93%30.09 "Hg15 mi
5:00 am41 °FPartly cloudy.No wind100%30.08 "Hg15 mi
4:00 am41 °FPassing clouds.2 mph93%30.07 "Hg15 mi
3:00 am43 °FPassing clouds.No wind93%30.06 "Hg15 mi
2:00 am43 °FPartly cloudy.3 mph100%30.06 "Hg15 mi
1:00 am45 °FPartly cloudy.3 mph93%30.06 "Hg15 mi
12:00 am45 °FPartly cloudy.No wind93%30.05 "Hg15 mi
11:00 pm
Sun, Oct 13
45 °FPartly cloudy.No wind93%30.04 "Hg15 mi
10:00 pm45 °FPassing clouds.No wind93%30.02 "Hg15 mi
9:00 pm46 °FPassing clouds.No wind93%30.01 "Hg15 mi
8:00 pm48 °FPassing clouds.5 mph87%29.99 "Hg15 mi
7:00 pm50 °FPassing clouds.3 mph82%29.99 "Hg15 mi
6:00 pm52 °FBroken clouds.7 mph77%29.98 "Hg15 mi
5:00 pm54 °FPartly sunny.7 mph72%29.98 "Hg15 mi
4:00 pm55 °FBroken clouds.7 mph72%29.97 "Hg15 mi
3:00 pm54 °FPartly sunny.7 mph82%29.97 "Hg10 mi
2:00 pm54 °FBroken clouds.7 mph77%29.96 "Hg10 mi
1:00 pm54 °FMostly cloudy.7 mph82%29.96 "Hg10 mi
12:00 pm52 °FFog.3 mph94%29.97 "Hg5 mi
11:48 am52 °FFog.6 mph94%29.97 "Hg4 mi
11:00 am50 °FLight rain. Fog.8 mph100%29.96 "Hg4 mi
10:00 am50 °FLight rain. Fog.3 mph100%29.95 "Hg4 mi
9:02 am48 °FLight rain. Fog.2 mph100%29.95 "Hg8 mi
8:56 am48 °FLight rain. Fog.2 mph100%29.95 "Hg6 mi
8:00 am48 °FFog.2 mph100%29.94 "Hg6 mi
Weather by CustomWeather, © 2019

See weather overview